KB8DOA Weather Reports


time (UTC)temp
C
wind
direction
speed
KPH
gust
KPH
rain 1hr
cm
rain 24hr
cm
rain mn
cm
humidity
%
barometer
mb
20260504223003 25 95 11.3 20.9 0.00 0.71 0.46 82 1011.8
20260504222504 25 101 9.7 16.1 0.00 0.99 0.46 82 1012.0
20260504222005 25 89 9.7 19.3 0.00 0.99 0.46 82 1012.1
20260504221503 25 85 11.3 19.3 0.00 1.50 0.46 82 1011.9
20260504221004 25 94 9.7 19.3 0.00 1.57 0.46 82 1011.6
20260504220004 25 103 4.8 19.3 0.00 1.57 0.46 82 1011.7
20260504215004 25 87 9.7 12.9 0.00 1.57 0.46 82 1011.9
20260504214004 25 98 8.0 19.3 0.00 1.57 0.46 82 1011.5
20260504213504 25 96 11.3 22.5 0.00 1.57 0.46 81 1011.0
20260504213003 25 72 9.7 16.1 0.00 1.57 0.46 81 1010.7
20260504212504 25 78 8.0 14.5 0.00 1.57 0.46 81 1011.2
20260504212004 25 96 8.0 19.3 0.00 1.57 0.46 81 1011.0
20260504211503 25 98 8.0 16.1 0.00 1.57 0.46 81 1011.1
20260504211005 25 65 8.0 22.5 0.00 1.57 0.46 82 1011.3
20260504210504 25 64 8.0 12.9 0.00 1.57 0.46 83 1011.9
20260504205505 25 72 11.3 16.1 0.00 1.57 0.46 82 1011.2
20260504205004 25 114 4.8 22.5 0.00 1.57 0.46 81 1011.1
20260504204004 25 95 9.7 24.1 0.00 1.57 0.46 81 1010.3
20260504203504 25 93 9.7 19.3 0.00 1.57 0.46 81 1010.7
20260504203004 25 91 14.5 22.5 0.00 1.57 0.46 83 1011.6
20260504202504 25 84 9.7 19.3 0.00 1.57 0.46 83 1011.8
20260504202004 25 84 11.3 20.9 0.00 1.57 0.46 83 1011.6
20260504201504 25 75 11.3 22.5 0.00 1.57 0.46 82 1010.9
20260504201003 25 99 11.3 19.3 0.00 1.57 0.46 81 1010.3
20260504200504 25 75 9.7 19.3 0.00 1.57 0.46 82 1010.6
20260504200004 24 78 11.3 20.9 0.03 1.57 0.46 84 1011.2
20260504195504 24 94 12.9 24.1 0.03 1.57 0.46 85 1011.6
20260504195003 24 114 6.4 20.9 0.03 1.57 0.46 86 1012.5
20260504194504 24 85 11.3 20.9 0.03 1.57 0.46 86 1012.3
20260504194004 25 74 9.7 20.9 0.03 1.57 0.46 86 1012.3
20260504193504 24 52 8.0 19.3 0.03 1.57 0.46 87 1012.1
20260504193004 24 79 9.7 22.5 0.03 1.57 0.46 88 1012.9
20260504192504 24 94 19.3 25.7 0.03 1.57 0.46 87 1012.5
20260504192004 23 98 11.3 19.3 0.03 1.57 0.46 89 1013.2
20260504191504 23 75 11.3 22.5 0.03 1.57 0.46 91 1013.9
20260504191003 23 98 14.5 22.5 0.00 1.57 0.46 90 1014.0
20260504190504 23 80 12.9 24.1 0.05 1.57 0.46 90 1014.0
20260504190004 23 94 11.3 29.0 0.10 1.55 0.43 90 1014.0
20260504185005 23 87 11.3 20.9 0.10 1.55 0.43 91 1014.3
20260504184503 23 81 9.7 24.1 0.10 1.55 0.43 92 1014.6
20260504184004 23 62 11.3 20.9 0.10 1.55 0.43 92 1014.4
20260504183505 23 72 11.3 22.5 0.10 1.55 0.43 93 1014.4
20260504181504 23 66 11.3 20.9 0.18 1.55 0.46 94 1014.5
20260504181003 23 84 8.0 22.5 0.18 1.55 0.46 94 1014.5
20260504180504 23 38 11.3 14.5 0.08 1.50 0.43 93 1014.6
20260504180003 23 48 9.7 14.5 0.03 1.42 0.36 93 1014.7
20260504175504 23 70 9.7 14.5 0.03 1.42 0.33 94 1014.6
20260504175004 23 76 9.7 14.5 0.08 1.42 0.33 94 1014.6
20260504174504 23 93 8.0 14.5 0.15 1.42 0.33 95 1014.6
20260504174004 23 63 8.0 11.3 0.15 1.42 0.33 95 1014.6
20260504173504 23 89 3.2 12.9 0.18 1.42 0.33 95 1014.6
20260504172503 23 93 4.8 12.9 0.18 1.42 0.33 94 1014.5
20260504172004 23 44 4.8 12.9 0.36 1.40 0.53 93 1014.5
20260504151004 25 76 3.2 4.8 0.00 1.07 0.18 84 1012.7
20260504150504 25 34 4.8 8.0 0.00 1.07 0.18 85 1013.0
20260504141003 23 20 3.2 9.7 0.00 1.07 0.18 94 1015.7
20260504140503 23 23 4.8 9.7 0.00 1.07 0.18 94 1015.6
20260504130503 23 28 3.2 4.8 0.00 1.55 0.18 98 1014.9
20260504110504 22 15 1.6 8.0 0.00 2.92 0.18 99 1014.4
20260504100504 23 258 1.6 8.0 0.00 3.28 0.18 98 1014.2
20260504081503 23 136 0.0 1.6 0.18 3.43 0.18 97 1013.1
20260504081004 23 173 0.0 1.6 0.18 3.43 0.18 97 1013.3
20260504080504 23 76 1.6 3.2 0.18 3.43 0.18 97 1013.3
20260504050504 23 342 0.0 1.6 0.00 3.25 0.00 95 1015.1
20260504045004 23 169 0.0 1.6 0.00 3.25 0.00 95 1015.1
20260504044003 23 162 0.0 1.6 0.00 3.25 0.00 95 1015.0
20260504043504 23 117 0.0 0.0 0.00 3.25 0.00 95 1014.9
20260504043004 23 63 0.0 1.6 0.00 3.25 0.00 95 1014.8
20260504042504 23 75 1.6 1.6 0.00 3.25 0.00 95 1014.8
20260504042005 23 117 0.0 3.2 0.00 3.25 0.00 95 1014.9
20260504041504 23 61 1.6 3.2 0.00 3.25 0.00 95 1014.8
20260504041003 23 84 1.6 4.8 0.00 3.25 0.00 95 1014.9
20260504035504 23 51 3.2 4.8 0.00 3.25 2.36 95 1015.0
20260504035004 23 79 1.6 4.8 0.00 3.25 2.36 95 1015.0
20260504034504 23 63 3.2 4.8 0.00 3.25 2.36 95 1014.9
20260504034003 23 41 3.2 4.8 0.00 3.25 2.36 95 1015.0
20260504033504 23 63 4.8 8.0 0.00 3.25 2.36 96 1015.0
20260504032504 23 91 1.6 4.8 0.00 3.25 2.36 96 1015.3
20260504031504 23 137 0.0 3.2 0.00 3.25 2.36 95 1015.3
20260504031004 23 97 1.6 3.2 0.00 3.25 2.36 95 1015.4
20260504030004 23 111 0.0 1.6 0.00 3.25 2.36 95 1015.3
20260504024504 23 84 1.6 3.2 0.00 3.25 2.36 95 1015.1
20260504024004 23 82 0.0 3.2 0.00 3.25 2.36 95 1015.2
20260504023504 23 111 0.0 3.2 0.00 3.25 2.36 95 1015.3
20260504023004 23 100 0.0 3.2 0.00 3.25 2.36 95 1015.3
20260504022504 23 99 1.6 3.2 0.00 3.25 2.36 95 1015.2
20260504022004 23 83 0.0 3.2 0.00 3.25 2.36 95 1015.1
20260504021504 23 51 0.0 3.2 0.00 3.25 2.36 95 1015.0
20260504021004 23 39 1.6 3.2 0.00 3.25 2.36 95 1015.0
20260504020504 23 46 0.0 1.6 0.00 3.25 2.36 95 1015.0
20260504020004 23 30 0.0 4.8 0.00 3.25 2.36 94 1015.0
20260504015503 23 84 3.2 4.8 0.00 3.25 2.36 94 1015.0
20260504013504 23 72 3.2 4.8 0.00 3.25 2.36 94 1014.9
20260504013003 23 42 4.8 9.7 0.00 3.25 2.36 94 1014.8
20260504012504 23 19 3.2 12.9 0.00 3.25 2.36 94 1014.7
20260504012004 23 27 4.8 12.9 0.00 3.25 2.36 94 1014.6
20260504011504 23 45 4.8 9.7 0.00 3.25 2.36 94 1014.5
20260504011003 23 15 1.6 8.0 0.00 3.25 2.36 94 1014.6
20260504010504 23 52 6.4 11.3 0.00 3.25 2.36 94 1014.5
20260504010003 23 45 4.8 9.7 0.00 3.25 2.36 94 1014.5
20260504005004 23 33 4.8 8.0 0.00 3.25 2.36 93 1014.5
20260504004504 23 34 4.8 11.3 0.00 3.25 2.36 93 1014.4
20260504003504 23 52 6.4 9.7 0.00 3.25 2.36 93 1014.2
20260504003005 23 47 4.8 11.3 0.00 3.25 2.36 93 1014.2
20260504002503 23 75 4.8 11.3 0.00 3.25 2.36 93 1014.2
20260504001504 23 328 1.6 3.2 0.00 3.25 2.36 93 1014.3
20260504001003 23 77 1.6 4.8 0.00 3.25 2.36 93 1014.3
20260504000506 23 53 3.2 9.7 0.00 3.25 2.36 93 1014.2
20260504000004 23 48 4.8 8.0 0.00 3.25 2.36 93 1014.0
20260503235503 23 35 4.8 9.7 0.00 3.25 2.36 93 1014.0
20260503235004 23 48 6.4 9.7 0.00 3.25 2.36 93 1013.9
20260503234504 23 53 3.2 11.3 0.00 3.25 2.36 93 1013.9
20260503234004 24 52 4.8 12.9 0.00 3.25 2.36 93 1013.8
20260503233503 24 37 3.2 9.7 0.00 3.25 2.36 93 1013.8
20260503233003 24 51 4.8 9.7 0.00 3.25 2.36 93 1013.7
20260503232504 24 60 3.2 9.7 0.23 3.25 2.36 93 1013.8
20260503232003 24 44 4.8 9.7 0.28 3.25 2.44 93 1013.8
20260503231504 24 52 1.6 4.8 0.79 3.25 2.44 93 1013.8
20260503231004 24 47 1.6 4.8 0.86 3.25 2.44 93 1013.8
20260503230504 23 81 3.2 4.8 0.86 3.25 2.44 93 1013.7
20260503230004 23 99 1.6 11.3 0.86 3.25 2.44 93 1013.5
20260503225505 23 62 4.8 8.0 0.86 3.25 2.44 93 1013.5
20260503225004 23 60 4.8 9.7 0.86 3.25 2.44 93 1013.4
20260503224004 23 71 3.2 8.0 0.86 3.25 2.44 92 1013.2
20260503223504 23 42 8.0 11.3 0.86 3.25 2.44 92 1013.3